Change the Weather History Date:

Friday, November 2, 2012

  Actual Average Record
Temperature  
Mean Temperature 32 °F -  
Max Temperature 35 °F 40 °F 51 °F (2003)
Min Temperature 30 °F 34 °F 24 °F (2001)
Degree Days  
Heating Degree Days 32    
Moisture  
Dew Point 20 °F    
Average Humidity 62    
Maximum Humidity 70    
Minimum Humidity 52    
Precipitation  
Precipitation 0.00 in - - ()
Sea Level Pressure  
Sea Level Pressure 29.19 in    
Wind  
Wind Speed 17 mph (West)    
Max Wind Speed 28 mph    
Max Gust Speed 36 mph    
Visibility 10 miles    
Events      
Averages and records for this station are not official NWS values.
T = Trace of Precipitation, MM = Missing Value Source: NWS Daily Summary

Daily Weather History Graph

Daily Weather History Graph

Search for Another Location

Airport or City:

Trip Planner

Search our weather history database for the weather conditions in past years. The results will help you decide how hot, cold, wet, or windy it might be!

Date:

Astronomy

Nov. 02, 2012 Rise Set
Actual Time 9:45 AM AKDT 6:47 PM AKDT
Civil Twilight 9:04 AM AKDT 7:28 PM AKDT
Nautical Twilight 8:20 AM AKDT 8:12 PM AKDT
Astronomical Twilight 7:36 AM AKDT 8:56 PM AKDT
Moon 9:20 PM AKDT (11/2) 1:39 PM AKDT (11/2)
Length of Visible Light 10h 23m
Length of Day
9h 02m
Waning Gibbous, 86% of the Moon is Illuminated
Nov 2
Waning Gibbous
Nov 6
Last Quarter
Nov 13
New
Nov 20
First Quarter
Nov 28
Full

Hourly Weather History & Observations

Time (AKDT) Temp. Windchill Dew Point Humidity Pressure Visibility Wind Dir Wind Speed Gust Speed Precip Events Conditions
12:16 AM 35.6 °F 25.9 °F 21.2 °F 56% 29.33 in 10.0 mi NNW 16.1 mph 21.9 mph N/A   Overcast
12:36 AM 35.6 °F 25.9 °F 21.2 °F 56% 29.32 in 10.0 mi NNW 16.1 mph 21.9 mph N/A   Overcast
12:56 AM 35.6 °F 24.5 °F 23.0 °F 60% 29.31 in 10.0 mi NNW 20.7 mph 26.5 mph N/A   Overcast
1:16 AM 35.6 °F 25.2 °F 21.2 °F 56% 29.31 in 10.0 mi North 18.4 mph 25.3 mph N/A   Overcast
1:36 AM 35.6 °F 25.5 °F 21.2 °F 56% 29.31 in 10.0 mi North 17.3 mph - N/A   Overcast
1:56 AM 35.6 °F 25.5 °F 21.2 °F 56% 29.30 in 10.0 mi North 17.3 mph 21.9 mph N/A   Overcast
2:16 AM 33.8 °F 23.5 °F 21.2 °F 60% 29.30 in 10.0 mi NNW 16.1 mph 21.9 mph N/A   Overcast
2:36 AM 33.8 °F 23.5 °F 21.2 °F 60% 29.29 in 10.0 mi North 16.1 mph 23.0 mph N/A   Overcast
2:56 AM 35.6 °F 25.9 °F 23.0 °F 60% 29.28 in 10.0 mi North 16.1 mph 23.0 mph N/A   Overcast
3:16 AM 35.6 °F 25.5 °F 26.6 °F 70% 29.27 in 10.0 mi North 17.3 mph 25.3 mph N/A   Overcast
3:36 AM 35.6 °F 26.6 °F 24.8 °F 65% 29.26 in 10.0 mi North 13.8 mph - N/A   Overcast
3:56 AM 35.6 °F 24.8 °F 23.0 °F 60% 29.25 in 10.0 mi North 19.6 mph 24.2 mph N/A   Overcast
4:16 AM 35.6 °F 24.5 °F 24.8 °F 65% 29.24 in 10.0 mi NNW 20.7 mph 26.5 mph N/A   Overcast
4:36 AM 35.6 °F 23.7 °F 24.8 °F 65% 29.24 in 10.0 mi NNW 24.2 mph 34.5 mph N/A   Overcast
4:56 AM 35.6 °F 27.1 °F 21.2 °F 56% 29.24 in 10.0 mi NNW 12.7 mph - N/A   Mostly Cloudy
5:16 AM 33.8 °F 27.0 °F 21.2 °F 60% 29.23 in 10.0 mi NW 8.1 mph 17.3 mph N/A   Overcast
5:36 AM 33.8 °F 25.8 °F 21.2 °F 60% 29.22 in 10.0 mi West 10.4 mph - N/A   Overcast
5:56 AM 33.8 °F 25.3 °F 21.2 °F 60% 29.21 in 10.0 mi West 11.5 mph 18.4 mph N/A   Overcast
6:16 AM 33.8 °F 26.4 °F 19.4 °F 56% 29.21 in 10.0 mi West 9.2 mph - N/A   Overcast
6:36 AM 33.8 °F 27.7 °F 19.4 °F 56% 29.19 in 10.0 mi WSW 6.9 mph - N/A   Overcast
6:56 AM 33.8 °F 27.7 °F 19.4 °F 56% 29.20 in 10.0 mi West 6.9 mph - N/A   Overcast
7:16 AM 33.8 °F 25.8 °F 19.4 °F 56% 29.19 in 10.0 mi NW 10.4 mph 17.3 mph N/A   Overcast
7:36 AM 33.8 °F 24.3 °F 19.4 °F 56% 29.19 in 10.0 mi WNW 13.8 mph 18.4 mph N/A   Overcast
7:56 AM 33.8 °F 25.8 °F 17.6 °F 52% 29.19 in 10.0 mi NNW 10.4 mph - N/A   Overcast
8:16 AM 33.8 °F 25.3 °F 17.6 °F 52% 29.19 in 10.0 mi West 11.5 mph 17.3 mph N/A   Overcast
8:36 AM 33.8 °F 26.4 °F 17.6 °F 52% 29.19 in 10.0 mi West 9.2 mph - N/A   Overcast
8:56 AM 32.0 °F 21.2 °F 19.4 °F 60% 29.18 in 10.0 mi WSW 16.1 mph 23.0 mph N/A   Overcast
9:16 AM 30.2 °F 21.3 °F 19.4 °F 64% 29.19 in 10.0 mi West 10.4 mph 24.2 mph N/A   Overcast
9:36 AM 30.2 °F 19.3 °F 19.4 °F 64% 29.19 in 10.0 mi West 15.0 mph 26.5 mph N/A   Overcast
9:56 AM 30.2 °F 21.3 °F 19.4 °F 64% 29.18 in 10.0 mi West 10.4 mph 19.6 mph N/A   Overcast
10:16 AM 30.2 °F 18.9 °F 19.4 °F 64% 29.19 in 10.0 mi West 16.1 mph 25.3 mph N/A   Overcast
10:36 AM 30.2 °F 16.8 °F 19.4 °F 64% 29.18 in 10.0 mi WSW 23.0 mph 29.9 mph N/A   Overcast
10:56 AM 30.2 °F 18.9 °F 19.4 °F 64% 29.18 in 10.0 mi West 16.1 mph 23.0 mph N/A   Overcast
11:16 AM 30.2 °F 20.2 °F 17.6 °F 60% 29.18 in 10.0 mi West 12.7 mph 20.7 mph N/A   Overcast
11:36 AM 30.2 °F 19.3 °F 17.6 °F 60% 29.17 in 10.0 mi West 15.0 mph 25.3 mph N/A   Overcast
11:56 AM 30.2 °F 18.5 °F 19.4 °F 64% 29.17 in 10.0 mi West 17.3 mph 23.0 mph N/A   Overcast
12:16 PM 30.2 °F 15.9 °F 19.4 °F 64% 29.15 in 10.0 mi WSW 26.5 mph 34.5 mph N/A   Overcast
12:36 PM 30.2 °F 18.9 °F 17.6 °F 60% 29.16 in 10.0 mi West 16.1 mph 20.7 mph N/A   Overcast
12:56 PM 30.2 °F 16.8 °F 19.4 °F 64% 29.15 in 10.0 mi WSW 23.0 mph 31.1 mph N/A   Overcast
1:16 PM 30.2 °F 16.2 °F 19.4 °F 64% 29.14 in 10.0 mi West 25.3 mph 35.7 mph N/A   Overcast
1:36 PM 32.0 °F 18.1 °F 19.4 °F 60% 29.14 in 10.0 mi WSW 27.6 mph 34.5 mph N/A   Overcast
1:56 PM 30.2 °F 17.4 °F 19.4 °F 64% 29.14 in 10.0 mi WSW 20.7 mph 28.8 mph N/A   Overcast
2:16 PM 32.0 °F 19.2 °F 19.4 °F 60% 29.13 in 10.0 mi WSW 23.0 mph 29.9 mph N/A   Overcast
2:36 PM 32.0 °F 18.9 °F 19.4 °F 60% 29.13 in 10.0 mi West 24.2 mph 33.4 mph N/A   Overcast
2:56 PM 30.2 °F 16.8 °F 19.4 °F 64% 29.12 in 10.0 mi West 23.0 mph 33.4 mph N/A   Overcast
3:16 PM 30.2 °F 17.1 °F 17.6 °F 60% 29.13 in 10.0 mi West 21.9 mph 29.9 mph N/A   Overcast
3:36 PM 30.2 °F 16.5 °F 19.4 °F 64% 29.13 in 10.0 mi West 24.2 mph 34.5 mph N/A   Overcast
3:56 PM 30.2 °F 17.1 °F 19.4 °F 64% 29.13 in 10.0 mi WSW 21.9 mph 34.5 mph N/A   Overcast
4:16 PM 30.2 °F 15.9 °F 19.4 °F 64% 29.13 in 10.0 mi WSW 26.5 mph 35.7 mph N/A   Overcast
4:36 PM 30.2 °F 17.8 °F 19.4 °F 64% 29.13 in 10.0 mi West 19.6 mph 33.4 mph N/A   Overcast
4:56 PM 30.2 °F 16.5 °F 19.4 °F 64% 29.12 in 7.0 mi WSW 24.2 mph 33.4 mph N/A   Overcast
5:16 PM 30.2 °F 17.1 °F 21.2 °F 69% 29.13 in 3.0 mi West 21.9 mph 29.9 mph N/A   Mostly Cloudy
5:36 PM 30.2 °F 17.8 °F 21.2 °F 69% 29.13 in 5.0 mi West 19.6 mph 31.1 mph N/A   Overcast
5:56 PM 30.2 °F 17.8 °F 21.2 °F 69% 29.14 in 10.0 mi West 19.6 mph 28.8 mph N/A   Overcast
6:16 PM 30.2 °F 18.1 °F 19.4 °F 64% 29.14 in 10.0 mi West 18.4 mph 27.6 mph N/A   Overcast
6:36 PM 30.2 °F 19.8 °F 19.4 °F 64% 29.15 in 10.0 mi West 13.8 mph 24.2 mph N/A   Overcast
6:56 PM 30.2 °F 19.3 °F 21.2 °F 69% 29.15 in 10.0 mi WSW 15.0 mph 25.3 mph N/A   Overcast
7:16 PM 30.2 °F 20.2 °F 19.4 °F 64% 29.16 in 10.0 mi West 12.7 mph 27.6 mph N/A   Overcast
7:36 PM 30.2 °F 19.8 °F 19.4 °F 64% 29.16 in 10.0 mi West 13.8 mph 21.9 mph N/A   Overcast
7:56 PM 30.2 °F 18.1 °F 21.2 °F 69% 29.16 in 9.0 mi WSW 18.4 mph 25.3 mph N/A   Overcast
8:16 PM 30.2 °F 18.9 °F 19.4 °F 64% 29.17 in 9.0 mi West 16.1 mph 23.0 mph N/A   Overcast
8:36 PM 30.2 °F 19.8 °F 19.4 °F 64% 29.17 in 10.0 mi West 13.8 mph 19.6 mph N/A   Overcast
8:56 PM 30.2 °F 19.3 °F 19.4 °F 64% 29.17 in 10.0 mi West 15.0 mph 25.3 mph N/A   Overcast
9:16 PM 30.2 °F 19.8 °F 21.2 °F 69% 29.17 in 7.0 mi WSW 13.8 mph 21.9 mph N/A   Mostly Cloudy
9:36 PM 30.2 °F 19.3 °F 21.2 °F 69% 29.18 in 10.0 mi West 15.0 mph - N/A   Overcast
9:56 PM 30.2 °F 18.5 °F 21.2 °F 69% 29.18 in 10.0 mi West 17.3 mph 20.7 mph N/A   Overcast
10:16 PM 30.2 °F 19.3 °F 21.2 °F 69% 29.19 in 10.0 mi West 15.0 mph 25.3 mph N/A   Overcast
10:36 PM 30.2 °F 18.1 °F 21.2 °F 69% 29.19 in 10.0 mi WSW 18.4 mph 23.0 mph N/A   Overcast
11:16 PM 30.2 °F 18.1 °F 21.2 °F 69% 29.21 in 10.0 mi WSW 18.4 mph 24.2 mph N/A   Overcast
11:36 PM 30.2 °F 19.8 °F 21.2 °F 69% 29.21 in 10.0 mi West 13.8 mph 21.9 mph N/A   Mostly Cloudy
11:56 PM 30.2 °F 18.9 °F 21.2 °F 69% 29.21 in 10.0 mi West 16.1 mph 23.0 mph N/A   Mostly Cloudy